Location: Unspecified
(0.0000°N, 0.0000°E)
Time: 21:00:17
(UTC+00:00)

STARLINK-1037 - Pass Details

Date: 11 December 2019
Orbit: 546 x 549 km, 53.0° (Epoch: 25 September)

Event Time Altitude Azimuth Distance (km) Brightness Sun altitude
Rises 19:23:57 0° 236° (WSW) 2,713 8.7 -20.8°
Reaches altitude 10° 19:26:31 10° 251° (WSW) 1,819 7.4 -21.4°
Maximum altitude 19:29:50 23° 304° (NW) 1,183 5.6 -22.1°
Enters shadow 19:31:37 18° 340° (NNW) 1,394 5.6 -22.5°
